User: anonymous   Login
Location: Unspecified
(0.0000°N, 0.0000°E)
Time: 13:45:53
(UTC+00:00)
Language:

GONETS M03 - Orbit

View from above orbital plane
View from above orbital plane
View from above satellite
View from above satellite

Ground track
Ground track

The orbit data is extracted from the following two-line orbital elements,

1 38734U 12041B   17323.73040261 -.00000002 +00000-0 -85673-4 0  9999
2 38734 082.4772 225.9021 0017184 071.5731 288.7217 12.44792479241116
Epoch (UTC): 19 November 2017 17:31:46
Eccentricity: 0.0017184
inclination: 82.4772°
perigee height: 1473 km
apogee height: 1500 km
right ascension of ascending node: 225.9021°
argument of perigee: 71.5731°
revolutions per day: 12.44792479
mean anomaly at epoch: 288.7217°
orbit number at epoch: 24111

The dashed part of the orbit path shows where the satellite is in the earth's shadow,  

DLR